Вернуться в каталог

ONEWEB-0224

АктивенСвязьPO
NORAD 48794·PAYLOAD·🇬🇧 United Kingdom

Запущен May 28, 2021 с Vostochny Cosmodrome

Loading…

Ближайшие Пролёты (ближайшие 24 часа)

TLE

СвежийSource: CelesTrak SupGP

Эпоха: Sep 15, 2026, 02:08 UTC

1 48794C 21045AD  26258.08937917 -.00004664  00000+0 -12405-1 0  2583
2 48794  87.8982 241.2996 0001260  69.0664  41.3093 13.15553197    10

Отслеживайте ONEWEB-0224 в реальном времени с AllMySat

Download on the App Store